, AK

(GMT )
Valdez Airport

Weather History for PAVD - February, 2013

Change the Weather History Date:

Sunday, February 3, 2013

  Actual Average Record
Temperature  
Mean Temperature 32 °F -  
Max Temperature 35 °F 28 °F 50 °F (2017)
Min Temperature 30 °F 18 °F -13 °F (1968)
Degree Days  
Heating Degree Days 32    
Moisture  
Dew Point 31 °F    
Average Humidity 94    
Maximum Humidity 100    
Minimum Humidity 81    
Precipitation  
Precipitation 0.07 in - - ()
Sea Level Pressure  
Sea Level Pressure 29.41 in    
Wind  
Wind Speed 1 mph (WSW)    
Max Wind Speed 7 mph    
Max Gust Speed -    
Visibility 6 miles    
Events      
Averages and records for this station are not official NWS values.
T = Trace of Precipitation, MM = Missing Value Source: NWS Daily Summary

Daily Weather History Graph

Daily Weather History Graph

Search for Another Location

Airport or City:

Trip Planner

Search our weather history database for the weather conditions in past years. The results will help you decide how hot, cold, wet, or windy it might be!

Date:

Astronomy

Feb. 03, 2013 Rise Set
Actual Time 8:58 AM AKST 4:59 PM AKST
Civil Twilight 8:10 AM AKST 5:48 PM AKST
Nautical Twilight 7:17 AM AKST 6:40 PM AKST
Astronomical Twilight 6:27 AM AKST 7:31 PM AKST
Moon 2:46 AM AKST (2/3) 10:29 AM AKST (2/3)
Length of Visible Light 9h 38m
Length of Day
8h 01m
Waning Gibbous, 47% of the Moon is Illuminated
Feb 3
Waning Gibbous
Feb 9
New
Feb 17
First Quarter
Feb 25
Full
Mar 4
Last Quarter

Hourly Weather History & Observations

Time (AKST) Temp. Windchill Dew Point Humidity Pressure Visibility Wind Dir Wind Speed Gust Speed Precip Events Conditions
12:16 AM 32.0 °F - 30.2 °F 93% 29.49 in 1.2 mi Calm Calm - N/A   Overcast
12:36 AM 32.0 °F - 30.2 °F 93% 29.48 in 1.0 mi Calm Calm - N/A   Overcast
12:56 AM 32.0 °F - 30.2 °F 93% 29.47 in 1.0 mi Calm Calm - N/A   Overcast
1:16 AM 32.0 °F - 30.2 °F 93% 29.47 in 1.5 mi Calm Calm - N/A   Overcast
1:36 AM 32.0 °F - 32.0 °F 100% 29.46 in 1.8 mi Calm Calm - N/A   Overcast
1:56 AM 32.0 °F - 30.2 °F 93% 29.45 in 1.0 mi Calm Calm - N/A   Overcast
2:16 AM 32.0 °F - 32.0 °F 100% 29.44 in 1.2 mi Calm Calm - N/A   Overcast
2:36 AM 32.0 °F - 32.0 °F 100% 29.44 in 0.8 mi Calm Calm - N/A   Overcast
3:16 AM 32.0 °F - 32.0 °F 100% 29.42 in 1.8 mi Calm Calm - N/A   Overcast
3:36 AM 32.0 °F - 30.2 °F 93% 29.41 in 2.0 mi Calm Calm - N/A   Overcast
3:56 AM 32.0 °F - 32.0 °F 100% 29.40 in 3.0 mi Calm Calm - N/A   Overcast
4:16 AM 32.0 °F - 30.2 °F 93% 29.40 in 4.0 mi Calm Calm - N/A   Overcast
4:36 AM 32.0 °F - 32.0 °F 100% 29.38 in 4.0 mi Calm Calm - N/A   Overcast
4:56 AM 30.2 °F - 30.2 °F 100% 29.37 in 5.0 mi Calm Calm - N/A   Overcast
5:16 AM 30.2 °F - 30.2 °F 100% 29.36 in 2.5 mi Calm Calm - N/A   Overcast
5:36 AM 32.0 °F - 30.2 °F 93% 29.35 in 3.0 mi Calm Calm - N/A   Overcast
5:56 AM 30.2 °F - 30.2 °F 100% 29.35 in 8.0 mi Calm Calm - N/A   Overcast
6:16 AM 30.2 °F 26.7 °F 28.4 °F 93% 29.34 in 8.0 mi East 3.5 mph - N/A   Overcast
6:36 AM 32.0 °F 28.7 °F 30.2 °F 93% 29.33 in 8.0 mi ESE 3.5 mph - N/A   Overcast
6:56 AM 32.0 °F - 30.2 °F 93% 29.33 in 10.0 mi Calm Calm - N/A   Overcast
7:16 AM 30.2 °F - 30.2 °F 100% 29.33 in 10.0 mi Calm Calm - N/A   Overcast
7:36 AM 32.0 °F - 32.0 °F 100% 29.33 in 10.0 mi Calm Calm - N/A   Overcast
7:56 AM 32.0 °F - 30.2 °F 93% 29.32 in 10.0 mi Calm Calm - N/A   Overcast
8:16 AM 30.2 °F - 30.2 °F 100% 29.32 in 10.0 mi Calm Calm - N/A   Overcast
8:36 AM 30.2 °F - 30.2 °F 100% 29.32 in 10.0 mi Calm Calm - N/A   Overcast
8:56 AM 32.0 °F - 30.2 °F 93% 29.32 in 10.0 mi Calm Calm - N/A   Overcast
9:16 AM 30.2 °F - 30.2 °F 100% 29.31 in 10.0 mi Calm Calm - N/A   Overcast
9:36 AM 30.2 °F - 28.4 °F 93% 29.31 in 10.0 mi Calm Calm - N/A   Overcast
9:56 AM 30.2 °F 26.7 °F 30.2 °F 100% 29.31 in 10.0 mi ENE 3.5 mph - N/A   Overcast
10:16 AM 32.0 °F - 30.2 °F 93% 29.31 in 10.0 mi Calm Calm - N/A   Overcast
10:36 AM 30.2 °F - 30.2 °F 100% 29.31 in 10.0 mi Calm Calm - N/A   Overcast
10:56 AM 32.0 °F - 30.2 °F 93% 29.31 in 10.0 mi Calm Calm - N/A   Overcast
11:16 AM 32.0 °F 28.7 °F 30.2 °F 93% 29.31 in 10.0 mi East 3.5 mph - N/A   Overcast
11:36 AM 32.0 °F 28.7 °F 30.2 °F 93% 29.32 in 10.0 mi East 3.5 mph - N/A   Overcast
11:56 AM 32.0 °F - 30.2 °F 93% 29.32 in 10.0 mi Calm Calm - N/A   Overcast
12:16 PM 32.0 °F - 30.2 °F 93% 29.32 in 10.0 mi Calm Calm - N/A   Overcast
12:36 PM 33.8 °F - 32.0 °F 93% 29.32 in 10.0 mi Calm Calm - N/A   Overcast
12:56 PM 33.8 °F - 32.0 °F 93% 29.33 in 10.0 mi Calm Calm - N/A   Overcast
1:16 PM 33.8 °F - 33.8 °F 100% 29.33 in 10.0 mi Calm Calm - N/A   Overcast
1:36 PM 33.8 °F - 32.0 °F 93% 29.33 in 10.0 mi Calm Calm - N/A   Overcast
1:56 PM 33.8 °F - 33.8 °F 100% 29.34 in 9.0 mi Calm Calm - 0.01 in   Overcast
2:16 PM 35.6 °F - 35.6 °F 100% 29.34 in 9.0 mi Calm Calm - N/A   Overcast
2:36 PM 33.8 °F 30.8 °F 33.8 °F 100% 29.35 in 9.0 mi SW 3.5 mph - N/A   Overcast
2:56 PM 33.8 °F - 32.0 °F 93% 29.36 in 8.0 mi Calm Calm - N/A   Overcast
3:16 PM 33.8 °F - 33.8 °F 100% 29.36 in 8.0 mi Calm Calm - N/A   Overcast
3:36 PM 33.8 °F - 32.0 °F 93% 29.37 in 8.0 mi Calm Calm - 0.01 in   Overcast
3:56 PM 33.8 °F - 33.8 °F 100% 29.37 in 7.0 mi Calm Calm - 0.01 in   Overcast
4:16 PM 33.8 °F - 32.0 °F 93% 29.38 in 7.0 mi Calm Calm - N/A   Overcast
4:36 PM 33.8 °F - 33.8 °F 100% 29.40 in 7.0 mi Calm Calm - 0.01 in   Overcast
4:56 PM 33.8 °F - 30.2 °F 87% 29.41 in 1.5 mi Calm Calm - 0.02 in   Overcast
5:16 PM 33.8 °F - 30.2 °F 87% 29.42 in 1.5 mi Calm Calm - 0.01 in   Overcast
5:36 PM 33.8 °F 30.8 °F 32.0 °F 93% 29.43 in 1.5 mi WNW 3.5 mph - 0.01 in   Overcast
5:56 PM 33.8 °F 30.8 °F 30.2 °F 87% 29.44 in 5.0 mi West 3.5 mph - 0.01 in   Overcast
6:16 PM 33.8 °F 28.6 °F 30.2 °F 87% 29.45 in 5.0 mi West 5.8 mph - N/A   Overcast
6:36 PM 33.8 °F 28.6 °F 32.0 °F 93% 29.46 in 5.0 mi West 5.8 mph - N/A   Overcast
6:56 PM 33.8 °F 29.6 °F 30.2 °F 87% 29.47 in 4.0 mi West 4.6 mph - N/A   Overcast
7:16 PM 33.8 °F - 30.2 °F 87% 29.48 in 4.0 mi Calm Calm - N/A   Overcast
7:36 PM 33.8 °F 27.7 °F 30.2 °F 87% 29.49 in 4.0 mi WSW 6.9 mph - N/A   Overcast
7:56 PM 33.8 °F - 28.4 °F 81% 29.50 in 3.0 mi Calm Calm - N/A   Overcast
8:16 PM 33.8 °F - 28.4 °F 81% 29.51 in 3.0 mi Calm Calm - N/A   Overcast
8:36 PM 33.8 °F - 30.2 °F 87% 29.51 in 3.0 mi Calm Calm - N/A   Overcast
8:56 PM 33.8 °F 30.8 °F 33.8 °F 100% 29.52 in 3.0 mi ENE 3.5 mph - 0.01 in   Overcast
9:16 PM 33.8 °F - 30.2 °F 87% 29.54 in 3.0 mi Calm Calm - N/A   Overcast
9:36 PM 33.8 °F - 30.2 °F 87% 29.54 in 3.0 mi Calm Calm - N/A   Overcast
9:56 PM 33.8 °F - 30.2 °F 87% 29.56 in 5.0 mi Calm Calm - N/A   Overcast
10:16 PM 33.8 °F - 33.8 °F 100% 29.57 in 10.0 mi Calm Calm - N/A   Overcast
10:36 PM 33.8 °F - 30.2 °F 87% 29.58 in 10.0 mi Calm Calm - N/A   Overcast
10:56 PM 33.8 °F - 32.0 °F 93% 29.59 in 10.0 mi Calm Calm - N/A   Overcast
11:16 PM 33.8 °F - 32.0 °F 93% 29.60 in 10.0 mi Calm Calm - N/A   Mostly Cloudy
11:36 PM 33.8 °F - 33.8 °F 100% 29.60 in 2.0 mi Calm Calm - N/A   Overcast
11:56 PM 32.0 °F - 30.2 °F 93% 29.61 in 3.0 mi Calm Calm - 0.01 in   Overcast